TimeEST,TemperatureF,Dew PointF,Humidity,Sea Level PressureIn,VisibilityMPH,Wind Direction,Wind SpeedMPH,Gust SpeedMPH,PrecipitationIn,Events,Conditions,WindDirDegrees,DateUTC
12:53 AM,64.9,62.1,90,30.21,10.0,ENE,4.6,-,N/A,,Clear,70,2012-12-03 05:53:00
1:53 AM,64.0,62.1,93,30.20,10.0,ENE,4.6,-,N/A,,Clear,70,2012-12-03 06:53:00
2:53 AM,63.0,61.0,93,30.19,10.0,Calm,Calm,-,N/A,,Clear,0,2012-12-03 07:53:00
3:53 AM,62.1,60.1,93,30.19,10.0,NE,3.5,-,N/A,,Clear,50,2012-12-03 08:53:00
4:53 AM,62.1,61.0,96,30.20,10.0,NE,5.8,-,N/A,,Clear,50,2012-12-03 09:53:00
5:53 AM,62.1,60.1,93,30.21,10.0,NE,5.8,-,N/A,,Clear,50,2012-12-03 10:53:00
7:53 AM,64.9,62.1,90,30.24,10.0,ENE,5.8,-,N/A,,Clear,60,2012-12-03 12:53:00
8:53 AM,69.1,63.0,81,30.25,10.0,East,8.1,-,N/A,,Clear,80,2012-12-03 13:53:00
10:53 AM,78.1,57.9,50,30.25,10.0,East,13.8,18.4,N/A,,Clear,80,2012-12-03 15:53:00
11:53 AM,80.1,55.9,43,30.23,10.0,East,12.7,-,N/A,,Scattered Clouds,80,2012-12-03 16:53:00
12:53 PM,80.1,55.0,42,30.20,10.0,East,9.2,-,N/A,,Scattered Clouds,90,2012-12-03 17:53:00
1:53 PM,82.0,53.1,37,30.17,10.0,ENE,11.5,18.4,N/A,,Partly Cloudy,60,2012-12-03 18:53:00
2:53 PM,82.0,48.0,30,30.16,10.0,East,11.5,19.6,N/A,,Clear,80,2012-12-03 19:53:00
3:53 PM,80.1,48.9,34,30.16,10.0,ENE,11.5,-,N/A,,Clear,70,2012-12-03 20:53:00
4:53 PM,78.1,52.0,40,30.17,10.0,ENE,11.5,19.6,N/A,,Clear,60,2012-12-03 21:53:00
5:53 PM,73.9,52.0,46,30.18,10.0,East,8.1,-,N/A,,Clear,80,2012-12-03 22:53:00
6:53 PM,71.1,51.1,49,30.20,10.0,East,6.9,-,N/A,,Clear,80,2012-12-03 23:53:00
7:53 PM,70.0,53.1,55,30.21,10.0,East,8.1,-,N/A,,Clear,80,2012-12-04 00:53:00
8:53 PM,68.0,55.0,63,30.22,10.0,East,6.9,-,N/A,,Clear,80,2012-12-04 01:53:00
9:53 PM,64.9,55.0,70,30.23,10.0,ENE,3.5,-,N/A,,Clear,70,2012-12-04 02:53:00
10:53 PM,62.1,55.9,80,30.23,10.0,ENE,4.6,-,N/A,,Clear,60,2012-12-04 03:53:00
11:53 PM,61.0,55.9,83,30.23,10.0,NE,6.9,-,N/A,,Partly Cloudy,50,2012-12-04 04:53:00